Chicopee, MA

5:39 PM EDT on June 23, 2017 (GMT -0400)
Westover Air Reserve Base / Metropolitan Airport

Weather History for KCEF - November, 2014

Change the Weather History Date:

Thursday, November 20, 2014

  Actual Average Record
Temperature  
Mean Temperature 35 °F -  
Max Temperature 44 °F 45 °F 67 °F (2011)
Min Temperature 25 °F 28 °F 17 °F (2013)
Degree Days  
Heating Degree Days 30    
Moisture  
Dew Point 16 °F    
Average Humidity 50    
Maximum Humidity 66    
Minimum Humidity 32    
Precipitation  
Precipitation 0.00 in - - ()
Sea Level Pressure  
Sea Level Pressure 29.91 in    
Wind  
Wind Speed 10 mph (WSW)    
Max Wind Speed 20 mph    
Max Gust Speed 29 mph    
Visibility 10 miles    
Events      
Averages and records for this station are not official NWS values.
T = Trace of Precipitation, MM = Missing Value Source: NWS Daily Summary

Daily Weather History Graph

Daily Weather History Graph

Search for Another Location

Airport or City:

Trip Planner

Search our weather history database for the weather conditions in past years. The results will help you decide how hot, cold, wet, or windy it might be!

Date:

Astronomy

Nov. 20, 2014 Rise Set
Actual Time 6:46 AM EST 4:24 PM EST
Civil Twilight 6:16 AM EST 4:55 PM EST
Nautical Twilight 5:41 AM EST 5:29 PM EST
Astronomical Twilight 5:08 AM EST 6:02 PM EST
Moon 4:36 AM EST (11/20) 3:28 PM EST (11/20)
Length of Visible Light 10h 39m
Length of Day
9h 37m
Waning Crescent, 4% of the Moon is Illuminated
Nov 20
Waning Crescent
Nov 22
New
Nov 29
First Quarter
Dec 6
Full
Dec 14
Last Quarter

Hourly Weather History & Observations

Time (EST) Temp. Windchill Dew Point Humidity Pressure Visibility Wind Dir Wind Speed Gust Speed Precip Events Conditions
12:58 AM 28.9 °F 18.6 °F 10.6 °F 46% 30.04 in 10.0 mi South 12.7 mph - N/A   Overcast
1:58 AM 29.3 °F 20.8 °F 12.0 °F 49% 30.01 in 10.0 mi South 9.2 mph - N/A   Overcast
2:58 AM 29.3 °F 20.2 °F 12.7 °F 50% 29.99 in 10.0 mi South 10.4 mph - N/A   Mostly Cloudy
3:58 AM 28.2 °F 20.2 °F 14.0 °F 55% 29.97 in 10.0 mi South 8.1 mph - N/A   Scattered Clouds
4:58 AM 28.8 °F 21.7 °F 15.6 °F 58% 29.95 in 10.0 mi SSW 6.9 mph - N/A   Overcast
5:58 AM 26.8 °F 20.2 °F 15.8 °F 63% 29.94 in 10.0 mi SSW 5.8 mph - N/A   Scattered Clouds
6:58 AM 28.9 °F 20.4 °F 16.9 °F 61% 29.93 in 10.0 mi South 9.2 mph - N/A   Overcast
7:58 AM 31.1 °F 23.7 °F 16.7 °F 55% 29.91 in 10.0 mi SSW 8.1 mph - N/A   Mostly Cloudy
8:58 AM 34.2 °F 26.2 °F 16.9 °F 49% 29.90 in 10.0 mi SW 10.4 mph - N/A   Clear
9:58 AM 37.9 °F 30.5 °F 18.0 °F 45% 29.90 in 10.0 mi SW 11.5 mph - N/A   Clear
10:58 AM 41.9 °F 34.0 °F 19.4 °F 41% 29.86 in 10.0 mi SW 16.1 mph 24.2 mph N/A   Clear
11:58 AM 43.7 °F 36.6 °F 17.8 °F 35% 29.83 in 10.0 mi WSW 15.0 mph 24.2 mph N/A   Partly Cloudy
12:58 PM 44.2 °F 36.2 °F 16.9 °F 33% 29.81 in 10.0 mi WSW 19.6 mph 28.8 mph N/A   Clear
1:58 PM 43.3 °F 36.8 °F 16.9 °F 35% 29.80 in 10.0 mi West 12.7 mph - N/A   Clear
2:58 PM 43.0 °F 36.8 °F 15.4 °F 33% 29.80 in 10.0 mi WSW 11.5 mph 21.9 mph N/A   Clear
3:58 PM 41.0 °F 33.1 °F 12.9 °F 32% 29.81 in 10.0 mi WSW 15.0 mph 24.2 mph N/A   Clear
4:58 PM 38.8 °F 31.6 °F 12.9 °F 35% 29.83 in 10.0 mi West 11.5 mph - N/A   Clear
5:58 PM 34.9 °F 28.3 °F 18.1 °F 51% 29.87 in 10.0 mi NW 8.1 mph - N/A   Scattered Clouds
6:58 PM 32.2 °F 25.0 °F 19.8 °F 60% 29.90 in 10.0 mi NNW 8.1 mph - N/A   Mostly Cloudy
7:58 PM 31.8 °F 24.6 °F 21.7 °F 66% 29.92 in 10.0 mi NW 8.1 mph - N/A   Mostly Cloudy
8:58 PM 31.3 °F 26.6 °F 21.2 °F 66% 29.94 in 10.0 mi NW 4.6 mph - N/A   Overcast
9:58 PM 28.6 °F 20.7 °F 16.7 °F 61% 29.94 in 10.0 mi NW 8.1 mph - N/A   Mostly Cloudy
10:58 PM 27.5 °F 21.1 °F 15.8 °F 61% 29.95 in 10.0 mi WNW 5.8 mph - N/A   Clear
11:58 PM 25.7 °F - 15.6 °F 66% 29.96 in 10.0 mi Variable 1.2 mph - N/A   Clear